| time (UTC) | temp F | wind direction | speed knots | gust knots | rain 1hr in | rain 24hr in | rain mn in | humidity % | barometer mb |
| 20260507154528 | 56 | 0 | 0.0 | 0.0 | 0.00 | 0.01 | 0.01 | 61 | 1012.4 |
| 20260507153032 | 56 | 0 | 0.0 | 3.5 | 0.00 | 0.01 | 0.01 | 61 | 1012.6 |
| 20260507151530 | 55 | 0 | 0.0 | 0.9 | 0.00 | 0.01 | 0.01 | 65 | 1012.5 |
| 20260507150029 | 55 | 0 | 0.0 | 0.9 | 0.00 | 0.01 | 0.01 | 65 | 1012.9 |
| 20260507144541 | 54 | 0 | 0.0 | 0.9 | 0.00 | 0.01 | 0.01 | 68 | 1012.9 |
| 20260507143033 | 53 | 0 | 0.0 | 0.0 | 0.00 | 0.01 | 0.01 | 69 | 1013.3 |
| 20260507141530 | 52 | 0 | 0.0 | 0.0 | 0.00 | 0.01 | 0.01 | 68 | 1013.4 |
| 20260507140034 | 52 | 0 | 0.0 | 0.0 | 0.00 | 0.01 | 0.01 | 72 | 1013.4 |
| 20260507134528 | 52 | 0 | 0.0 | 0.0 | 0.00 | 0.02 | 0.01 | 74 | 1013.5 |
| 20260507133030 | 52 | 0 | 0.0 | 0.0 | 0.00 | 0.02 | 0.01 | 76 | 1013.8 |
| 20260507131531 | 51 | 0 | 0.0 | 0.0 | 0.00 | 0.02 | 0.01 | 79 | 1013.3 |
| 20260507130036 | 51 | 0 | 0.0 | 0.0 | 0.00 | 0.02 | 0.01 | 83 | 1013.5 |
| 20260507124530 | 50 | 0 | 0.0 | 0.0 | 0.00 | 0.02 | 0.01 | 83 | 1013.6 |
| 20260507123039 | 50 | 0 | 0.0 | 0.0 | 0.00 | 0.02 | 0.01 | 87 | 1013.5 |
| 20260507121530 | 50 | 0 | 0.0 | 0.0 | 0.00 | 0.02 | 0.01 | 86 | 1013.4 |
| 20260507120027 | 50 | 0 | 0.0 | 0.0 | 0.00 | 0.02 | 0.01 | 87 | 1013.3 |
| 20260507114530 | 51 | 0 | 0.0 | 0.0 | 0.00 | 0.02 | 0.01 | 89 | 1013.1 |
| 20260507113029 | 51 | 0 | 0.0 | 0.9 | 0.00 | 0.02 | 0.01 | 92 | 1012.9 |
| 20260507111535 | 53 | 0 | 0.0 | 0.0 | 0.00 | 0.02 | 0.01 | 94 | 1012.9 |
| 20260507110032 | 53 | 0 | 0.0 | 0.9 | 0.00 | 0.02 | 0.01 | 94 | 1012.9 |
| 20260507104530 | 53 | 0 | 0.0 | 0.0 | 0.00 | 0.02 | 0.01 | 94 | 1012.7 |
| 20260507103027 | 53 | 0 | 0.0 | 0.0 | 0.00 | 0.02 | 0.01 | 94 | 1012.4 |
| 20260507101529 | 53 | 0 | 0.0 | 0.0 | 0.00 | 0.02 | 0.01 | 93 | 1012.4 |
| 20260507100042 | 53 | 0 | 0.0 | 0.0 | 0.00 | 0.02 | 0.01 | 94 | 1012.2 |
| 20260507094528 | 53 | 0 | 0.0 | 0.0 | 0.00 | 0.02 | 0.01 | 94 | 1012.2 |
| 20260507093040 | 53 | 0 | 0.0 | 0.0 | 0.00 | 0.02 | 0.01 | 94 | 1012.1 |
| 20260507091530 | 53 | 0 | 0.0 | 0.0 | 0.00 | 0.02 | 0.01 | 93 | 1012.1 |
| 20260507090029 | 53 | 0 | 0.0 | 0.0 | 0.00 | 0.02 | 0.01 | 93 | 1012.2 |
| 20260507084530 | 53 | 0 | 0.0 | 0.0 | 0.00 | 0.02 | 0.01 | 93 | 1012.1 |
| 20260507083030 | 53 | 0 | 0.0 | 0.0 | 0.00 | 0.02 | 0.01 | 93 | 1011.9 |
| 20260507081536 | 53 | 0 | 0.0 | 0.0 | 0.00 | 0.02 | 0.01 | 93 | 1011.7 |
| 20260507080027 | 53 | 0 | 0.0 | 0.0 | 0.00 | 0.02 | 0.01 | 93 | 1011.4 |
| 20260507074532 | 53 | 0 | 0.0 | 0.0 | 0.00 | 0.02 | 0.01 | 93 | 1011.3 |
| 20260507073028 | 54 | 0 | 0.0 | 0.9 | 0.00 | 0.02 | 0.01 | 93 | 1011.2 |
| 20260507071529 | 54 | 0 | 0.0 | 0.9 | 0.00 | 0.02 | 0.01 | 93 | 1011.3 |
| 20260507070030 | 55 | 0 | 0.0 | 0.0 | 0.00 | 0.02 | 0.01 | 93 | 1011.3 |
| 20260507064530 | 55 | 0 | 0.0 | 0.0 | 0.00 | 0.02 | 0.01 | 93 | 1011.4 |
| 20260507063030 | 55 | 0 | 0.0 | 0.9 | 0.00 | 0.02 | 0.01 | 93 | 1011.3 |
| 20260507061530 | 56 | 0 | 0.0 | 0.0 | 0.00 | 0.02 | 0.01 | 93 | 1011.2 |
| 20260507060028 | 56 | 0 | 0.0 | 0.0 | 0.00 | 0.02 | 0.01 | 93 | 1011.3 |
| 20260507054530 | 56 | 0 | 0.0 | 0.0 | 0.00 | 0.02 | 0.01 | 92 | 1011.5 |
| 20260507053028 | 56 | 0 | 0.0 | 0.0 | 0.01 | 0.02 | 0.01 | 92 | 1011.6 |
| 20260507051528 | 56 | 0 | 0.0 | 0.0 | 0.01 | 0.02 | 0.01 | 91 | 1011.2 |
| 20260507050038 | 57 | 0 | 0.0 | 0.0 | 0.01 | 0.02 | 0.01 | 88 | 1011.3 |
| 20260507044528 | 58 | 0 | 0.0 | 0.0 | 0.01 | 0.02 | 0.01 | 83 | 1011.7 |
| 20260507043028 | 59 | 0 | 0.0 | 0.9 | 0.00 | 0.01 | 0.00 | 81 | 1011.3 |
| 20260507041542 | 60 | 0 | 0.0 | 0.9 | 0.00 | 0.01 | 0.00 | 79 | 1011.8 |
| 20260507040027 | 60 | 0 | 0.0 | 0.9 | 0.00 | 0.01 | 0.00 | 79 | 1011.1 |
| 20260507034529 | 61 | 0 | 0.0 | 0.0 | 0.00 | 0.01 | 0.01 | 80 | 1010.8 |
| 20260507033034 | 62 | 0 | 0.0 | 1.7 | 0.00 | 0.01 | 0.01 | 80 | 1010.9 |
| 20260507031530 | 62 | 0 | 0.0 | 0.0 | 0.00 | 0.01 | 0.01 | 80 | 1010.9 |
| 20260507030030 | 62 | 0 | 0.0 | 0.0 | 0.00 | 0.01 | 0.01 | 80 | 1010.6 |
| 20260507024528 | 63 | 0 | 0.0 | 0.9 | 0.00 | 0.01 | 0.01 | 80 | 1010.5 |
| 20260507023027 | 63 | 0 | 0.0 | 0.0 | 0.00 | 0.01 | 0.01 | 80 | 1010.3 |
| 20260507021530 | 63 | 343 | 0.0 | 0.9 | 0.00 | 0.01 | 0.01 | 80 | 1010.4 |
| 20260507020030 | 64 | 0 | 0.0 | 0.9 | 0.00 | 0.01 | 0.01 | 81 | 1010.0 |
| 20260507014547 | 64 | 0 | 0.0 | 0.0 | 0.00 | 0.01 | 0.01 | 82 | 1010.0 |
| 20260507013042 | 65 | 0 | 0.0 | 0.9 | 0.00 | 0.01 | 0.01 | 82 | 1010.4 |
| 20260507011536 | 65 | 0 | 0.0 | 0.0 | 0.00 | 0.01 | 0.01 | 82 | 1010.1 |
| 20260507010032 | 66 | 0 | 0.0 | 1.7 | 0.00 | 0.01 | 0.01 | 85 | 1010.3 |
| 20260507004530 | 66 | 0 | 0.0 | 0.0 | 0.00 | 0.01 | 0.01 | 85 | 1009.9 |
| 20260507003028 | 67 | 0 | 0.0 | 0.0 | 0.00 | 0.01 | 0.01 | 84 | 1009.7 |
| 20260507001530 | 67 | 0 | 0.0 | 0.0 | 0.00 | 0.01 | 0.01 | 83 | 1009.5 |
| 20260507000031 | 68 | 0 | 0.0 | 0.0 | 0.00 | 0.01 | 0.01 | 83 | 1009.3 |
| 20260506234530 | 68 | 0 | 0.0 | 0.9 | 0.00 | 0.01 | 0.01 | 82 | 1009.2 |
| 20260506233030 | 68 | 278 | 0.0 | 1.7 | 0.00 | 0.01 | 0.01 | 82 | 1008.9 |
| 20260506231529 | 68 | 0 | 0.0 | 1.7 | 0.00 | 0.01 | 0.01 | 81 | 1008.8 |
| 20260506230030 | 69 | 0 | 0.0 | 1.7 | 0.00 | 0.01 | 0.01 | 81 | 1008.7 |
| 20260506224530 | 69 | 0 | 0.0 | 1.7 | 0.00 | 0.01 | 0.01 | 81 | 1008.5 |
| 20260506223030 | 69 | 285 | 0.0 | 2.6 | 0.00 | 0.01 | 0.01 | 80 | 1008.5 |
| 20260506221530 | 69 | 0 | 0.0 | 2.6 | 0.00 | 0.01 | 0.01 | 79 | 1008.5 |
| 20260506220030 | 69 | 277 | 0.9 | 2.6 | 0.00 | 0.01 | 0.01 | 80 | 1008.6 |
| 20260506214527 | 69 | 0 | 0.0 | 5.2 | 0.00 | 0.01 | 0.01 | 80 | 1008.6 |
| 20260506213028 | 69 | 255 | 0.9 | 3.5 | 0.00 | 0.01 | 0.01 | 79 | 1008.6 |
| 20260506211531 | 70 | 0 | 0.0 | 3.5 | 0.00 | 0.01 | 0.01 | 78 | 1008.3 |
| 20260506210036 | 70 | 281 | 0.9 | 6.1 | 0.00 | 0.01 | 0.01 | 79 | 1008.2 |
| 20260506204530 | 70 | 56 | 0.9 | 3.5 | 0.00 | 0.01 | 0.01 | 78 | 1007.9 |
| 20260506203040 | 69 | 284 | 0.9 | 3.5 | 0.00 | 0.01 | 0.01 | 78 | 1008.0 |
| 20260506201531 | 70 | 266 | 1.7 | 4.3 | 0.00 | 0.01 | 0.01 | 79 | 1008.2 |
| 20260506200029 | 70 | 278 | 0.9 | 5.2 | 0.00 | 0.01 | 0.01 | 79 | 1008.1 |
| 20260506194530 | 69 | 290 | 0.9 | 7.8 | 0.00 | 0.01 | 0.01 | 78 | 1008.2 |
| 20260506193031 | 69 | 292 | 1.7 | 5.2 | 0.00 | 0.01 | 0.01 | 78 | 1008.1 |
| 20260506191532 | 69 | 89 | 1.7 | 4.3 | 0.00 | 0.01 | 0.01 | 78 | 1008.3 |
| 20260506190029 | 68 | 277 | 0.9 | 6.1 | 0.00 | 0.01 | 0.01 | 81 | 1008.4 |
| 20260506184529 | 67 | 295 | 1.7 | 7.0 | 0.00 | 0.01 | 0.01 | 81 | 1008.7 |
| 20260506183029 | 66 | 279 | 2.6 | 7.0 | 0.00 | 0.01 | 0.01 | 82 | 1008.8 |
| 20260506181534 | 66 | 288 | 2.6 | 7.0 | 0.00 | 0.01 | 0.01 | 82 | 1008.9 |
| 20260506180038 | 66 | 8 | 1.7 | 7.0 | 0.00 | 0.01 | 0.01 | 83 | 1009.0 |
| 20260506174529 | 65 | 184 | 1.7 | 7.0 | 0.00 | 0.01 | 0.01 | 84 | 1009.2 |
| 20260506173032 | 65 | 0 | 1.7 | 7.0 | 0.00 | 0.01 | 0.01 | 86 | 1009.0 |
| 20260506171544 | 64 | 330 | 1.7 | 7.0 | 0.00 | 0.01 | 0.01 | 87 | 1009.0 |
| 20260506170027 | 63 | 257 | 1.7 | 5.2 | 0.00 | 0.01 | 0.01 | 88 | 1009.3 |
| 20260506164528 | 63 | 313 | 1.7 | 7.8 | 0.00 | 0.01 | 0.01 | 89 | 1009.3 |
| 20260506163031 | 62 | 203 | 0.9 | 6.1 | 0.00 | 0.01 | 0.01 | 90 | 1009.4 |
| 20260506161541 | 62 | 265 | 0.9 | 4.3 | 0.00 | 0.01 | 0.01 | 91 | 1009.6 |
| 20260506160028 | 61 | 297 | 0.0 | 7.0 | 0.00 | 0.01 | 0.01 | 93 | 1009.5 |